Location: *
(52.1167°S, 179.8167°W)
Time: 09:10:18
(UTC+00:00)

Daily predictions for brighter satellites

Satellite Brightness Start Highest point End
(mag) Time Altitude Azimuth Time Altitude Azimuth Time Altitude Azimuth
SJ 16-02 1.5 12:03:17 31° N 12:05:15 63° ENE 12:09:40 10° SSE
Genesis I 4.4 12:04:39 10° SW 12:08:13 40° SE 12:11:45 10° ENE
Meteor 2-5 Rocket 3.8 12:04:32 10° SSW 12:10:26 81° ESE 12:14:10 23° NNE
Cosmos 1674 Rocket 3.9 12:07:30 10° S 12:12:00 62° ESE 12:14:39 23° NNE
Cosmos 2322 Rocket 4.4 12:09:37 10° SSW 12:14:14 25° SE 12:18:50 10° E
Cosmos 1697 Rocket 2.9 12:09:41 10° SW 12:15:18 57° WNW 12:18:30 25° N
ATLAS 5 CENTAUR R/B 4.5 12:09:30 10° WSW 12:15:49 32° S 12:21:18 10° SE
Spot 4 3.9 12:11:26 10° SSE 12:16:20 74° ENE 12:18:58 27° N
ADEOS II 3.2 12:12:24 10° NE 12:17:19 40° ESE 12:22:16 10° S
Cosmos 1703 3.7 12:18:13 10° S 12:22:05 56° ESE 12:24:12 24° NNE
Cosmos 1908 3.1 12:20:56 34° N 12:22:29 82° E 12:26:19 10° SSE
MOS 1 Rocket 4.2 12:17:10 10° S 12:22:30 52° WSW 12:26:10 19° NW
Cosmos 1821 Rocket 4.1 12:20:49 10° SSW 12:27:05 67° W 12:31:07 23° N
GP-B 3.5 12:23:19 10° S 12:27:45 55° W 12:30:02 26° NNW
ARGOS Delta rocket 3.8 12:23:29 10° SSE 12:28:10 69° E 12:30:32 27° N
USA 81 4.1 12:25:49 25° N 12:28:58 81° E 12:34:20 10° S
Cosmos 1570 Rocket 4.4 12:24:18 10° SSW 12:29:26 49° WNW 12:32:09 26° NNW
Resurs 1-4 Rocket 2.3 12:26:23 18° NNE 12:30:21 74° ESE 12:35:42 10° SSW
IDEFIX/ARIANE 42P 2.8 12:26:51 18° NNE 12:30:49 73° ESE 12:36:09 10° SSW
Cosmos 1470 3.5 12:29:47 25° NW 12:31:40 45° WSW 12:35:29 10° S
Cosmos 773 Rocket 4.4 12:26:30 10° SSW 12:31:52 66° ESE 12:36:51 12° NE
Blok-2BL 4.3 12:32:17 10° SW 12:33:01 24° SW 12:33:01 24° SW
ATLAS 3B R/B 2.5 12:27:35 10° SW 12:34:02 89° SE 12:40:20 10° NE
SL-16 R/B 3.5 12:31:35 10° SSW 12:37:01 40° SE 12:42:23 10° ENE
Meteor 1-22 Rocket 4.1 12:35:05 25° NNW 12:38:18 86° WSW 12:43:43 10° SSE
Lacrosse 5 rocket 1.1 12:38:43 10° WSW 12:42:23 78° SSE 12:46:05 10° ENE
Meteor 1-15 Rocket 4.4 12:39:22 23° NNW 12:43:05 74° WSW 12:48:51 10° S
CZ-2D R/B 2.2 12:39:10 19° NNE 12:43:17 88° ESE 12:48:54 10° SSW
Cosmos 1825 4.2 12:40:47 10° SSE 12:43:41 22° ESE 12:46:34 10° ENE
H-2A R/B 4.4 12:42:20 25° NW 12:44:01 35° W 12:47:54 10° SSW
Cosmos 1980 Rocket 2.2 12:38:55 10° SW 12:44:36 66° WNW 12:48:42 19° NNE
COSMOS 2406 3.7 12:41:45 22° N 12:45:12 49° ENE 12:50:48 10° SE
ATLAS CENTAUR R/B 2.0 12:41:52 10° SW 12:46:22 62° SE 12:50:46 10° NE
Cosmos 2369 3.7 12:41:20 10° SSW 12:47:03 73° WNW 12:51:33 17° NNE
ATLAS 5 CENTAUR R/B 4.4 12:43:19 10° SW 12:49:21 68° NW 13:16:09 10° NNE
Cosmos 1378 Rocket 3.9 12:46:23 10° SSW 12:50:41 53° W 12:52:55 26° NNW
Cosmos 1340 2.9 12:49:31 28° NNE 12:51:12 57° E 12:54:47 10° SSE
Cosmos 1908 Rocket 3.8 12:52:20 23° N 12:55:00 66° E 12:59:32 10° SSE
Cosmos 1733 Rocket 3.7 12:54:41 22° NW 12:57:11 46° WSW 13:01:28 10° S
USA 306 4.2 12:57:19 16° NE 12:57:37 16° NE 12:59:56 10° E
Cosmos 1300 2.8 12:57:13 27° N 12:59:08 67° E 13:02:52 10° SSE
Cosmos 1455 4.4 12:59:18 10° NE 13:01:50 18° E 13:04:24 10° SE
Cosmos 1408 2.3 12:59:53 10° SSW 13:03:12 66° W 13:04:36 31° N
Cosmos 1833 Rocket 3.3 12:58:35 14° NW 13:03:17 51° SW 13:08:50 10° SSE
Cosmos 158 Rocket 4.0 12:59:57 10° SSW 13:04:47 55° WNW 13:07:53 21° N
COSMOS 2441 4.5 13:00:41 15° NNE 13:04:48 80° ESE 13:09:44 10° SSW
Cosmos 2221 Rocket 4.2 13:00:31 10° SSW 13:04:54 43° W 13:07:18 23° NNW
Meteor 2-10 Rocket 3.8 13:03:32 21° N 13:07:33 82° E 13:13:29 10° SSE
ATLAS 2AS CENTAUR R/B 2.7 13:02:10 16° NW 13:07:42 86° SW 13:14:48 10° SE
FENGYUN 3A 4.1 13:02:26 10° NNE 13:07:49 65° ESE 13:13:14 10° S
Cosmos 1356 Rocket 4.3 13:06:08 10° SSW 13:10:02 35° W 13:12:03 22° NW
Cosmos 1633 2.0 13:13:45 10° SSW 13:16:51 82° W 13:18:24 26° N
ISS -1.6 13:17:10 13° NNE 13:17:35 13° NE 13:19:20 10° ENE
Lacrosse 4 Rocket 4.2 13:16:28 10° SW 13:18:24 13° SSW 13:20:21 10° S
Cosmos 1486 Rocket 4.1 13:14:50 20° NNW 13:18:34 77° WSW 13:24:00 10° SSE
Cosmos 1758 3.9 13:16:23 22° NW 13:18:41 48° WSW 13:22:37 10° S
Cosmos 2278 3.7 13:17:21 10° SSW 13:23:07 83° WNW 13:28:51 10° NNE
NPP 4.2 13:22:23 19° NNW 13:25:51 42° W 13:31:03 10° SSW
Cosmos 2082 Rocket 2.2 13:22:45 19° NNW 13:26:59 86° WSW 13:32:48 10° SSE
Helios 1A Rocket 2.8 13:22:59 10° SSE 13:27:01 78° WSW 13:29:33 21° NNW
Cosmos 1300 Rocket 4.0 13:27:30 16° N 13:30:59 61° E 13:35:27 10° SSE
USA 229 DEB 3.8 13:24:57 10° SW 13:31:55 76° SE 13:38:14 10° NE
USA 229 3.8 13:25:01 10° SW 13:32:00 76° SE 13:38:17 10° NE
Cosmos 2098 Rocket 2.5 13:30:36 25° NW 13:32:01 51° WSW 13:35:10 10° S
Cosmos 2237 4.3 13:26:48 10° SSW 13:32:38 85° ESE 13:38:24 10° NNE
CZ-2C R/B 4.0 13:29:49 10° NE 13:34:33 37° ESE 13:39:13 10° S
USA 308 1.4 13:33:48 34° NW 13:34:35 63° NNE 13:37:16 10° ESE
CZ-2C R/B 3.6 13:29:29 10° NNE 13:35:05 72° ESE 13:40:58 10° SSW
Cosmos 1025 Rocket 3.3 13:32:29 10° SSW 13:36:53 56° W 13:40:05 18° N
ALOS 2 4.0 13:34:26 10° S 13:38:19 29° WSW 13:41:37 13° WNW
Cosmos 1777 Rocket 4.1 13:36:00 18° NNW 13:39:58 80° ENE 13:45:16 10° SSE
Cosmos 1867 4.2 13:36:50 10° SW 13:41:44 35° WNW 13:46:02 13° N
Cosmos 2360 Rocket 3.0 13:36:35 10° SSW 13:42:13 56° SE 13:47:49 10° NE
ALOS 2.4 13:37:34 10° NNE 13:42:15 77° ESE 13:47:00 10° SSW
SJ 16-02 3.3 13:40:39 10° WNW 13:44:05 22° SW 13:47:35 10° S
NOSS 3-1 (A) 3.5 13:37:41 10° SW 13:44:10 53° WNW 13:49:26 10° NNE
NOSS 3-1 (C) 4.2 13:39:03 10° WSW 13:44:31 29° WNW 13:48:04 15° NNW
Genesis I 3.9 13:41:34 10° WSW 13:44:54 31° WNW 13:47:08 17° N
Cosmos 2219 Rocket 3.9 13:43:20 10° SSW 13:48:34 37° SE 13:53:47 10° ENE
Cosmos 1727 Rocket 4.3 13:42:51 10° N 13:48:59 65° E 13:55:15 10° SSE
Cosmos 1953 2.3 13:46:52 18° NNW 13:49:43 71° WSW 13:53:45 10° S
CZ-4 R/B 3.8 13:46:58 10° NNE 13:51:41 80° WNW 13:56:27 10° SSW
Thor Agena Rocket 3.6 13:49:07 10° NNE 13:54:16 89° ESE 13:59:34 10° SSW
Cosmos 1503 Rocket 4.3 13:52:19 15° NW 13:56:33 61° WSW 14:01:46 10° SSE
ADEOS II 2.8 13:53:01 15° NNW 13:56:59 39° W 14:01:58 10° SSW
Cosmos 1605 Rocket 4.3 13:51:40 10° SSW 13:57:38 52° W 14:03:04 12° NNW
Meteor 1-16 Rocket 4.5 13:54:13 15° NNW 13:58:43 60° WSW 14:04:24 10° S
Cosmos 1328 4.1 13:54:59 10° SSW 13:58:50 50° W 14:02:01 14° NNW
Cosmos 1315 Rocket 3.6 13:55:06 10° SSW 13:58:50 36° W 14:01:41 15° NNW
Cosmos 2322 Rocket 2.3 13:53:22 10° SSW 13:59:06 87° ESE 14:04:46 10° NNE
USA 305 3.2 13:58:56 14° NNE 13:59:16 15° NE 14:00:32 10° ENE
Cosmos 304 Rocket 4.4 13:55:33 12° N 13:59:54 50° ENE 14:04:37 10° SSE
USA 281 3.6 13:53:50 10° NE 14:00:22 69° ESE 14:06:58 10° SSW
ATLAS 5 CENTAUR R/B 4.2 13:55:42 10° SW 14:01:46 34° SSE 14:06:51 10° E
Meteor 1-21 Rocket 4.4 13:57:40 10° SSW 14:03:13 55° W 14:08:37 10° N
USA 307 3.0 14:04:20 17° N 14:05:12 21° NNE 14:07:02 10° E
Cosmos 1782 Rocket 4.1 14:02:06 15° NNW 14:05:41 50° WSW 14:10:09 10° S
Meteor 1-4 Rocket 2.2 14:03:16 10° SSW 14:06:33 85° W 14:09:47 10° N
Cosmos 2173 Rocket 4.1 14:00:42 10° S 14:06:56 78° E 14:13:05 10° NNE
Cosmos 2333 Rocket 2.7 14:01:14 10° SSW 14:06:57 67° SE 14:12:37 10° NE
Cosmos 1354 Rocket 4.3 14:03:28 14° NW 14:08:00 63° WSW 14:13:17 10° SSE
PAYLOAD A 4.4 14:04:24 10° NNE 14:09:05 60° ESE 14:13:47 10° S
Cosmos 1892 3.5 14:06:50 10° SSW 14:10:11 32° W 14:12:47 14° NNW
Resurs 1-4 Rocket 3.6 14:07:27 12° NW 14:10:44 20° W 14:14:40 10° SW
IDEFIX/ARIANE 42P 4.1 14:07:36 12° NW 14:10:54 21° W 14:14:53 10° SW
Cosmos 2100 Rocket 4.0 14:11:35 10° S 14:17:51 87° W 14:24:05 10° N
Cosmos 1802 Rocket 4.4 14:11:42 10° S 14:18:13 73° ESE 14:24:33 10° NNE
Okean 2 Rocket 3.7 14:13:51 10° N 14:18:14 56° E 14:22:40 10° SSE
Envisat 3.3 14:13:18 10° NNE 14:18:25 73° ESE 14:23:34 10° SSW
Cosmos 1825 2.9 14:15:09 10° SSW 14:18:28 34° W 14:21:22 12° NNW
Geosat 4.0 14:13:42 10° NNE 14:18:46 79° WNW 14:23:53 10° SSW
Cosmos 371 Rocket 3.4 14:15:44 12° NNW 14:20:18 90° SSW 14:25:17 10° SSE
Lacrosse 5 rocket 2.1 14:17:38 10° W 14:20:38 24° NW 14:23:41 10° N
SL-16 R/B 2.5 14:15:46 10° SW 14:21:15 48° WNW 14:26:42 10° N
Cosmos 1975 Rocket 4.0 14:18:02 10° SSW 14:21:58 32° W 14:25:39 11° NNW
Cosmos 923 Rocket 4.3 14:17:07 10° SSW 14:22:25 74° ESE 14:27:41 10° NNE
ATLAS 3B R/B 3.6 14:19:02 10° WSW 14:23:54 24° WNW 14:28:45 10° NNW
CZ-2D R/B 3.8 14:20:28 10° NW 14:24:03 18° W 14:27:46 10° SW
ATLAS CENTAUR R/B 2.6 14:20:26 10° WSW 14:24:08 25° WNW 14:27:45 10° N
Cosmos 990 Rocket 4.2 14:20:16 10° NNW 14:25:29 74° ENE 14:30:48 10° SSE
Cosmos 1980 Rocket 4.1 14:25:12 10° WSW 14:27:31 13° W 14:29:49 10° WNW
METEOR-M 4.2 14:23:19 10° N 14:28:42 77° WNW 14:34:10 10° SSW
COSMOS 2406 4.2 14:24:15 10° WNW 14:29:40 40° SW 14:35:10 10° SSE
YAOGAN 6 3.1 14:27:09 10° NNE 14:30:27 58° ESE 14:33:50 10° S
USA 306 2.5 14:29:08 10° WNW 14:32:30 65° NNE 14:36:15 10° ESE
Cosmos 1725 Rocket 4.3 14:29:43 10° S 14:36:11 79° E 14:42:34 10° NNE
Cosmos 1455 2.7 14:32:57 11° NNW 14:36:23 43° WSW 14:39:58 10° S
IRS-1D 3.7 14:31:50 10° N 14:37:06 67° WNW 14:42:32 10° SSW
Cosmos 44 Rocket 3.5 14:32:46 10° NW 14:37:25 64° SW 14:42:04 10° SE
Okean 1 Rocket 3.9 14:33:33 10° N 14:37:56 52° E 14:42:20 10° SSE
Cosmos 1680 Rocket 3.8 14:34:00 10° SSW 14:39:24 76° ESE 14:44:45 10° NNE
H-2A R/B 4.3 14:35:20 10° ENE 14:39:54 31° ESE 14:44:36 10° S
Cosmos 1536 Rocket 3.7 14:36:27 10° SSW 14:41:00 67° W 14:45:28 10° N
Cosmos 1242 Rocket 2.9 14:39:13 10° S 14:42:32 60° ESE 14:45:48 10° NNE
Cosmos 2333 4.2 14:38:04 10° SSW 14:43:46 84° WNW 14:49:27 10° NNE
Cosmos 2112 Rocket 4.3 14:45:06 10° SSW 14:50:31 80° ESE 14:55:54 10° NNE
MOZ.5/SAFIR/RUBIN 5/SL-8 3.9 14:46:34 10° SSE 14:51:20 72° WSW 14:56:01 10° NNW
COBE Rocket 3.9 14:46:57 10° N 14:51:34 58° W 14:56:16 10° SSW
ISS -3.2 14:50:26 10° NW 14:53:44 46° NNE 14:57:03 10° E
Cosmos 2151 Rocket 3.8 14:51:53 10° NNW 14:56:25 65° WSW 15:01:01 10° S
